When you browse on this site, cookies collect data to enhance your experience and personalize the content and advertising you see.
Visit our Privacy Policy to learn more. By continuing to use the site, you agree to this use of cookies and data.
  • In Slovakia
  • List of Countries
  • For 7 days
  • Water Temperature
  • Satellite Maps
  • Weather Map
  • Weather Widgets
  • user-avatar
    Login

    Hourly Weather Saurimo

    Today, 19 November, Monday

    Time Temperature Precipitation Wind Pressure Humidity
    00:00 +20°C° 0 mm 1 mps 669 mmHg 89%
    01:00 +20°C° 0 mm 1 mps 669 mmHg 90%
    02:00 +20°C° 0 mm 1 mps 669 mmHg 90%
    03:00 +19°C° 0 mm 1 mps 669 mmHg 91%
    04:00 +19°C° 0 mm 1 mps 669 mmHg 92%
    05:00 +20°C° 0.2 mm 1 mps 670 mmHg 89%
    06:00 +21°C° 0.2 mm 1 mps 670 mmHg 87%
    07:00 +20°C° 0.2 mm 0 mps 671 mmHg 84%
    08:00 +26°C° 0 mm 1 mps 672 mmHg 70%
    09:00 +30°C° 0 mm 1 mps 673 mmHg 56%
    10:00 +34°C° 0 mm 1 mps 673 mmHg 42%
    11:00 +32°C° 0 mm 0 mps 673 mmHg 40%
    12:00 +33°C° 0 mm 0 mps 672 mmHg 39%
    13:00 +33°C° 0 mm 0 mps 671 mmHg 37%
    14:00 +31°C° 0 mm 0 mps 671 mmHg 42%
    15:00 +30°C° 0 mm 0 mps 670 mmHg 46%
    16:00 +28°C° 0 mm 0 mps 669 mmHg 50%
    17:00 +28°C° 0.2 mm 1 mps 669 mmHg 58%
    18:00 +26°C° 0.2 mm 1 mps 669 mmHg 65%
    19:00 +24°C° 0.2 mm 1 mps 669 mmHg 73%
    20:00 +23°C° 0.6 mm 1 mps 669 mmHg 78%
    21:00 +22°C° 0.6 mm 1 mps 670 mmHg 84%
    22:00 +22°C° 0.6 mm 1 mps 670 mmHg 89%
    23:00 +21°C° 0 mm 1 mps 670 mmHg 90%

    Tomorrow, 20 November, Tuesday

    Time Temperature Precipitation Wind Pressure Humidity
    00:00 +19°C° 0 mm 0 mps 669 mmHg 90%
    01:00 +19°C° 0 mm 0 mps 669 mmHg 91%
    02:00 +19°C° 0.6 mm 0 mps 669 mmHg 92%
    03:00 +18°C° 0.6 mm 0 mps 669 mmHg 94%
    04:00 +18°C° 0.6 mm 0 mps 669 mmHg 96%
    05:00 +19°C° 0.1 mm 0 mps 670 mmHg 92%
    06:00 +20°C° 0.1 mm 0 mps 670 mmHg 89%
    07:00 +21°C° 0.1 mm 0 mps 671 mmHg 86%
    08:00 +24°C° 0.1 mm 0 mps 672 mmHg 73%
    09:00 +29°C° 0.1 mm 1 mps 672 mmHg 61%
    10:00 +32°C° 0.1 mm 1 mps 673 mmHg 48%
    11:00 +33°C° 0.4 mm 1 mps 672 mmHg 46%
    12:00 +34°C° 0.4 mm 1 mps 671 mmHg 44%
    13:00 +34°C° 0.4 mm 1 mps 671 mmHg 42%
    14:00 +32°C° 0.4 mm 2 mps 670 mmHg 51%
    15:00 +29°C° 0.4 mm 2 mps 669 mmHg 61%
    16:00 +26°C° 0.4 mm 2 mps 668 mmHg 70%
    17:00 +25°C° 1.4 mm 2 mps 669 mmHg 76%
    18:00 +24°C° 1.4 mm 2 mps 669 mmHg 83%
    19:00 +23°C° 1.4 mm 1 mps 669 mmHg 90%
    20:00 +22°C° 1.5 mm 1 mps 670 mmHg 92%
    21:00 +22°C° 1.5 mm 1 mps 670 mmHg 94%
    22:00 +21°C° 1.5 mm 1 mps 670 mmHg 95%
    23:00 +21°C° 0.2 mm 1 mps 670 mmHg 95%

    Day after tomorrow, 21 November, Wednesday

    Time Temperature Precipitation Wind Pressure Humidity
    00:00 +21°C° 0.2 mm 1 mps 670 mmHg 96%
    01:00 +21°C° 0.2 mm 1 mps 669 mmHg 96%
    02:00 +20°C° 0.6 mm 1 mps 669 mmHg 96%
    03:00 +20°C° 0.6 mm 1 mps 669 mmHg 97%
    04:00 +20°C° 0.6 mm 1 mps 669 mmHg 97%
    05:00 +21°C° 0.3 mm 1 mps 670 mmHg 95%
    06:00 +22°C° 0.3 mm 1 mps 670 mmHg 93%
    07:00 +22°C° 0.3 mm 1 mps 671 mmHg 91%
    08:00 +24°C° 0.8 mm 2 mps 672 mmHg 87%
    09:00 +25°C° 0.8 mm 2 mps 672 mmHg 83%
    10:00 +26°C° 0.8 mm 2 mps 672 mmHg 79%
    11:00 +26°C° 0.9 mm 2 mps 671 mmHg 76%
    12:00 +27°C° 0.9 mm 2 mps 671 mmHg 73%
    13:00 +27°C° 0.9 mm 2 mps 670 mmHg 70%
    14:00 +27°C° 0.7 mm 2 mps 670 mmHg 72%
    15:00 +27°C° 0.7 mm 1 mps 670 mmHg 74%
    16:00 +27°C° 0.7 mm 1 mps 670 mmHg 76%
    17:00 +25°C° 0.4 mm 1 mps 670 mmHg 82%
    18:00 +23°C° 0.4 mm 1 mps 670 mmHg 87%
    19:00 +22°C° 0.4 mm 1 mps 670 mmHg 93%
    20:00 +22°C° 0 mm 1 mps 671 mmHg 94%
    21:00 +21°C° 0 mm 1 mps 671 mmHg 94%
    22:00 +21°C° 0 mm 1 mps 671 mmHg 95%
    23:00 +21°C° 0.1 mm 1 mps 671 mmHg 95%

    22 November, Thursday

    Time Temperature Precipitation Wind Pressure Humidity
    00:00 +21°C° 0.1 mm 1 mps 670 mmHg 95%
    01:00 +20°C° 0.1 mm 1 mps 670 mmHg 96%
    02:00 +20°C° 0.3 mm 1 mps 670 mmHg 96%
    03:00 +20°C° 0.3 mm 1 mps 669 mmHg 96%
    04:00 +20°C° 0.3 mm 1 mps 669 mmHg 96%
    05:00 +21°C° 0.3 mm 1 mps 670 mmHg 95%
    06:00 +21°C° 0.3 mm 1 mps 670 mmHg 94%
    07:00 +19°C° 0.3 mm 0 mps 671 mmHg 93%
    08:00 +20°C° 0.2 mm 0 mps 671 mmHg 88%
    09:00 +23°C° 0.2 mm 1 mps 672 mmHg 83%
    10:00 +25°C° 0.2 mm 1 mps 672 mmHg 78%
    11:00 +27°C° 0.2 mm 1 mps 672 mmHg 68%
    12:00 +28°C° 0.2 mm 0 mps 671 mmHg 58%
    13:00 +30°C° 0.2 mm 0 mps 671 mmHg 48%
    14:00 +31°C° 0.1 mm 1 mps 671 mmHg 50%
    15:00 +30°C° 0.1 mm 1 mps 670 mmHg 53%
    16:00 +29°C° 0.1 mm 1 mps 670 mmHg 55%
    17:00 +27°C° 0.1 mm 1 mps 670 mmHg 65%
    18:00 +25°C° 0.1 mm 1 mps 670 mmHg 74%
    19:00 +22°C° 0.1 mm 1 mps 670 mmHg 84%
    20:00 +22°C° 0 mm 1 mps 670 mmHg 86%
    21:00 +19°C° 0 mm 0 mps 670 mmHg 88%
    22:00 +18°C° 0 mm 0 mps 670 mmHg 90%
    23:00 +18°C° 0 mm 0 mps 669 mmHg 91%

    23 November, Friday

    Time Temperature Precipitation Wind Pressure Humidity
    00:00 +18°C° 0 mm 0 mps 669 mmHg 92%
    01:00 +18°C° 0 mm 0 mps 669 mmHg 92%
    02:00 +18°C° 0 mm 0 mps 669 mmHg 93%
    03:00 +17°C° 0 mm 0 mps 669 mmHg 93%
    04:00 +17°C° 0 mm 0 mps 669 mmHg 94%
    05:00 +18°C° 0 mm 0 mps 670 mmHg 89%
    06:00 +20°C° 0 mm 0 mps 671 mmHg 85%
    07:00 +21°C° 0 mm 0 mps 672 mmHg 80%
    08:00 +25°C° 0.1 mm 1 mps 672 mmHg 72%
    09:00 +27°C° 0.1 mm 1 mps 672 mmHg 65%
    10:00 +29°C° 0.1 mm 1 mps 672 mmHg 57%
    11:00 +29°C° 0.7 mm 2 mps 671 mmHg 59%
    12:00 +29°C° 0.7 mm 2 mps 671 mmHg 60%
    13:00 +29°C° 0.7 mm 2 mps 670 mmHg 61%
    14:00 +29°C° 1 mm 2 mps 669 mmHg 67%
    15:00 +28°C° 1 mm 2 mps 669 mmHg 72%
    16:00 +27°C° 1 mm 1 mps 669 mmHg 77%
    17:00 +26°C° 1.7 mm 1 mps 669 mmHg 82%
    18:00 +24°C° 1.7 mm 1 mps 669 mmHg 87%
    19:00 +21°C° 1.7 mm 2 mps 670 mmHg 92%
    20:00 +22°C° 0 mm 1 mps 670 mmHg 93%
    21:00 +21°C° 0 mm 1 mps 670 mmHg 94%
    22:00 +21°C° 0 mm 1 mps 670 mmHg 94%
    23:00 +21°C° 0 mm 1 mps 670 mmHg 94%

    24 November, Saturday

    Time Temperature Precipitation Wind Pressure Humidity
    00:00 +21°C° 0 mm 1 mps 669 mmHg 95%
    01:00 +20°C° 0 mm 1 mps 669 mmHg 95%
    02:00 +20°C° 0 mm 1 mps 669 mmHg 95%
    03:00 +20°C° 0 mm 1 mps 669 mmHg 95%
    04:00 +19°C° 0 mm 1 mps 669 mmHg 96%
    05:00 +21°C° 0 mm 1 mps 669 mmHg 92%
    06:00 +22°C° 0 mm 1 mps 670 mmHg 88%
    07:00 +23°C° 0 mm 1 mps 671 mmHg 85%
    08:00 +25°C° 0.1 mm 1 mps 671 mmHg 74%
    09:00 +28°C° 0.1 mm 2 mps 672 mmHg 62%
    10:00 +31°C° 0.1 mm 2 mps 672 mmHg 51%
    11:00 +30°C° 0.2 mm 2 mps 671 mmHg 52%
    12:00 +30°C° 0.2 mm 2 mps 670 mmHg 53%
    13:00 +30°C° 0.2 mm 2 mps 669 mmHg 54%
    14:00 +30°C° 0.4 mm 2 mps 669 mmHg 58%
    15:00 +29°C° 0.4 mm 2 mps 669 mmHg 61%
    16:00 +29°C° 0.4 mm 2 mps 669 mmHg 65%
    17:00 +27°C° 1.2 mm 2 mps 669 mmHg 74%
    18:00 +25°C° 1.2 mm 2 mps 669 mmHg 84%
    19:00 +23°C° 1.2 mm 2 mps 669 mmHg 93%
    20:00 +21°C° 0.2 mm 2 mps 670 mmHg 94%
    21:00 +22°C° 0.2 mm 1 mps 670 mmHg 95%
    22:00 +22°C° 0.2 mm 1 mps 670 mmHg 96%
    23:00 +21°C° 0 mm 1 mps 669 mmHg 96%
    Show more